User: anonymous   Login
Location: La Oliva
(42.2466°N, 2.9955°E)
Time: 20:33:46
(UTC+00:00)
Language:

Cosmos 2297 Rocket - Orbit

View from above orbital plane
View from above orbital plane
View from above satellite
View from above satellite

Ground track
Ground track

The orbit data is extracted from the following two-line orbital elements,

1 23405U 94077B   21172.58165454  .00000060  00000-0  55306-4 0  9991
2 23405  70.9838  14.3159 0004793 265.2194  94.8382 14.15243445372836
Epoch (UTC): 21 June 2021 13:57:34
Eccentricity: 0.0004793
inclination: 70.9838°
perigee height: 838 km
apogee height: 845 km
right ascension of ascending node: 14.3159°
argument of perigee: 265.2194°
revolutions per day: 14.15243445
mean anomaly at epoch: 94.8382°
orbit number at epoch: 37283

The dashed part of the orbit path shows where the satellite is in the earth's shadow,  

DLR